Eugene, OR

2:55 AM PDT on May 21, 2018 (GMT -0700)
Mahlon Sweet

Weather History for KEUG - December, 2011

Change the Weather History Date:

Monday, December 19, 2011

  Actual Average Record
Temperature  
Mean Temperature 39 °F 39 °F  
Max Temperature 43 °F 45 °F 64 °F (1940)
Min Temperature 34 °F 33 °F 4 °F (1924)
Degree Days  
Heating Degree Days 26 26  
Month to date heating degree days 554 475  
Since 1 July heating degree days 1605 1648  
Cooling Degree Days 0 0  
Month to date cooling degree days 0 0  
Year to date cooling degree days 231 239  
Moisture  
Dew Point 37 °F    
Average Humidity 91    
Maximum Humidity 100    
Minimum Humidity 82    
Precipitation  
Precipitation 0.00 in 0.25 in 3.24 in (1957)
Month to date precipitation 0.15 5.06  
Year to date precipitation 29.20 43.33  
Snow  
Snow 0.00 in - - ()
Month to date snowfall 0.0  
Since 1 July snowfall 0.0  
Snow Depth 0.00 in    
Sea Level Pressure  
Sea Level Pressure 30.44 in    
Wind  
Wind Speed 5 mph (NNE)    
Max Wind Speed 15 mph    
Max Gust Speed 17 mph    
Visibility 4 miles    
Events Fog    
T = Trace of Precipitation, MM = Missing Value Source: NWS Daily Summary

Daily Weather History Graph

Daily Weather History Graph

Search for Another Location

Airport or City:

Astronomy

Dec. 19, 2011 Rise Set
Actual Time 7:43 AM PST 4:36 PM PST
Civil Twilight 7:10 AM PST 5:09 PM PST
Nautical Twilight 6:33 AM PST 5:46 PM PST
Astronomical Twilight 5:58 AM PST 6:21 PM PST
Moon 1:52 AM PST (12/19) 12:44 PM PST (12/19)
Length of Visible Light 9h 59m
Length of Day
8h 52m
Waning Crescent, 30% of the Moon is Illuminated
Dec 19
Waning Crescent
Dec 24
New
Dec 31
First Quarter
Jan 8
Full
Jan 16
Last Quarter

Hourly Weather History & Observations

Time (PST) Temp. Windchill Dew Point Humidity Pressure Visibility Wind Dir Wind Speed Gust Speed Precip Events Conditions
12:54 AM 37.0 °F 31.0 °F 35.1 °F 93% 30.41 in 1.0 mi North 8.1 mph - N/A   Mostly Cloudy
1:54 AM 37.0 °F - 36.0 °F 96% 30.41 in 0.5 mi Calm Calm - N/A Fog Fog
2:00 AM 37.4 °F 33.8 °F 35.6 °F 93% 30.40 in 0.2 mi NNE 4.6 mph - N/A Fog Fog
2:54 AM 37.9 °F - 37.0 °F 97% 30.43 in 0.2 mi Calm Calm - N/A Fog Fog
3:41 AM 39.2 °F 37.0 °F 37.4 °F 93% 30.42 in 0.2 mi NE 3.5 mph - N/A Fog Fog
3:54 AM 39.0 °F 34.8 °F 37.9 °F 96% 30.43 in 0.2 mi NE 5.8 mph - N/A Fog Fog
4:54 AM 37.9 °F - 37.0 °F 97% 30.44 in 0.2 mi Calm Calm - N/A Fog Fog
5:54 AM 37.9 °F - 37.0 °F 97% 30.45 in 0.1 mi Calm Calm - N/A Fog Fog
6:54 AM 37.9 °F - 37.0 °F 97% 30.45 in 0.1 mi Calm Calm - N/A Fog Fog
7:27 AM 37.4 °F - 35.6 °F 93% 30.44 in 0.5 mi Calm Calm - N/A Fog Fog
7:44 AM 37.4 °F - 37.4 °F 100% 30.44 in 1.0 mi Calm Calm - N/A   Mist
7:54 AM 37.9 °F - 37.0 °F 97% 30.45 in 1.5 mi Calm Calm - N/A   Overcast
8:20 AM 37.4 °F - 35.6 °F 93% 30.45 in 2.0 mi Calm Calm - N/A   Overcast
8:54 AM 37.9 °F - 37.0 °F 97% 30.45 in 1.0 mi Calm Calm - N/A   Overcast
9:16 AM 39.2 °F - 37.4 °F 93% 30.45 in 0.8 mi Calm Calm - N/A   Mist
9:41 AM 39.2 °F - 37.4 °F 93% 30.45 in 1.0 mi Calm Calm - N/A   Overcast
9:54 AM 39.9 °F - 37.9 °F 93% 30.46 in 1.0 mi Calm Calm - N/A   Overcast
9:59 AM 39.2 °F 37.0 °F 37.4 °F 93% 30.45 in 1.5 mi North 3.5 mph - N/A   Overcast
10:36 AM 39.2 °F 35.9 °F 39.2 °F 100% 30.46 in 1.0 mi North 4.6 mph - N/A   Overcast
10:54 AM 41.0 °F 38.0 °F 37.9 °F 89% 30.47 in 1.0 mi NNE 4.6 mph - N/A   Overcast
11:04 AM 41.0 °F 37.1 °F 39.2 °F 93% 30.46 in 2.5 mi NNE 5.8 mph - N/A   Overcast
11:54 AM 42.1 °F 37.7 °F 39.0 °F 89% 30.45 in 5.0 mi NNE 6.9 mph - N/A   Overcast
12:06 PM 41.0 °F 35.8 °F 37.4 °F 87% 30.43 in 6.0 mi NNE 8.1 mph - N/A   Overcast
12:54 PM 42.1 °F 38.4 °F 37.9 °F 85% 30.43 in 9.0 mi NNE 5.8 mph - N/A   Overcast
1:54 PM 43.0 °F 38.2 °F 37.9 °F 82% 30.42 in 9.0 mi North 8.1 mph - N/A   Overcast
2:01 PM 42.8 °F 38.0 °F 37.4 °F 81% 30.41 in 9.0 mi North 8.1 mph - N/A   Overcast
2:54 PM 42.1 °F 36.6 °F 37.0 °F 82% 30.43 in 9.0 mi North 9.2 mph - N/A   Overcast
3:54 PM 42.1 °F 34.9 °F 37.0 °F 82% 30.43 in 9.0 mi NNE 13.8 mph - N/A   Overcast
4:54 PM 41.0 °F 33.9 °F 37.4 °F 87% 30.43 in 9.0 mi NNE 12.7 mph - N/A   Overcast
5:54 PM 41.0 °F 35.2 °F 37.0 °F 86% 30.45 in 9.0 mi NNE 9.2 mph - N/A   Overcast
6:54 PM 41.0 °F 36.4 °F 37.0 °F 86% 30.45 in 8.0 mi NNE 6.9 mph - N/A   Overcast
7:54 PM 39.9 °F 35.1 °F 37.0 °F 89% 30.45 in 10.0 mi NNE 6.9 mph - N/A   Overcast
8:54 PM 39.9 °F 34.5 °F 36.0 °F 86% 30.45 in 10.0 mi NNE 8.1 mph - N/A   Overcast
9:54 PM 39.9 °F 35.8 °F 36.0 °F 86% 30.40 in 10.0 mi SSE 5.8 mph - N/A   Overcast
10:54 PM 39.9 °F 36.7 °F 36.0 °F 86% 30.45 in 9.0 mi NNW 4.6 mph - N/A   Overcast
11:54 PM 39.9 °F - 37.0 °F 89% 30.45 in 7.0 mi Calm Calm - N/A   Overcast